Location: Saint-Hippolyte
(43.6394°N, 4.7559°E)
Time: 16:08:27
(UTC+00:00)

Cosmos 1825 Rocket - Pass Details

Date: 24 October 2020
Orbit: 603 x 631 km, 82.5° (Epoch: 24 November)

Event Time Altitude Azimuth Distance (km) Brightness Sun altitude
Rises 17:22:18 0° 355° (N) 2,930 7.0 -7.8°
Reaches altitude 10° 17:24:35 10° 359° (N) 2,015 6.1 -8.2°
Maximum altitude 17:29:00 60° 80° (E) 719 3.6 -9.0°
Drops below altitude 10° 17:33:21 10° 160° (SSE) 1,984 6.0 -9.8°
Sets 17:35:35 0° 164° (SSE) 2,881 6.9 -10.2°
